Tanana, AK

6:02 PM AKST on November 21, 2017 (GMT -0900)
Calhoun Memorial

Weather History for PATA - October, 2012

Change the Weather History Date:

Monday, October 1, 2012

  Actual Average Record
Temperature  
Mean Temperature 30 °F -  
Max Temperature 39 °F 42 °F 66 °F (2003)
Min Temperature 21 °F 26 °F 12 °F (1952)
Degree Days  
Heating Degree Days 35    
Moisture  
Dew Point 24 °F    
Average Humidity 79    
Maximum Humidity 92    
Minimum Humidity 62    
Precipitation  
Precipitation 0.00 in - - ()
Sea Level Pressure  
Sea Level Pressure 30.19 in    
Wind  
Wind Speed 6 mph (ENE)    
Max Wind Speed 16 mph    
Max Gust Speed -    
Visibility 10 miles    
Events      
Averages and records for this station are not official NWS values.
T = Trace of Precipitation, MM = Missing Value Source: NWS Daily Summary

Daily Weather History Graph

Daily Weather History Graph

Search for Another Location

Airport or City:

Trip Planner

Search our weather history database for the weather conditions in past years. The results will help you decide how hot, cold, wet, or windy it might be!

Date:

Astronomy

Oct. 01, 2012 Rise Set
Actual Time 8:20 AM AKDT 7:33 PM AKDT
Civil Twilight 7:31 AM AKDT 8:22 PM AKDT
Nautical Twilight 6:32 AM AKDT 9:20 PM AKDT
Astronomical Twilight 5:28 AM AKDT 10:24 PM AKDT
Moon 7:08 PM AKDT (10/1) 11:01 AM AKDT (10/1)
Length of Visible Light 12h 51m
Length of Day
11h 13m
Full, 97% of the Moon is Illuminated
Oct 1
Full
Oct 7
Last Quarter
Oct 15
New
Oct 21
First Quarter
Oct 29
Full

Hourly Weather History & Observations

Time (AKDT) Temp. Windchill Dew Point Humidity Pressure Visibility Wind Dir Wind Speed Gust Speed Precip Events Conditions
12:52 AM 25.0 °F 19.3 °F 21.0 °F 85% 30.13 in 10.0 mi NNE 4.6 mph - N/A   Clear
1:52 AM 23.0 °F 17.0 °F 19.9 °F 88% 30.14 in 10.0 mi NNE 4.6 mph - N/A   Clear
2:52 AM 21.9 °F 13.4 °F 19.0 °F 89% 30.15 in 10.0 mi North 6.9 mph - N/A   Clear
3:52 AM 21.9 °F 13.4 °F 19.0 °F 89% 30.15 in 10.0 mi NNE 6.9 mph - N/A   Clear
4:52 AM 21.9 °F 15.7 °F 19.0 °F 89% 30.16 in 10.0 mi NNE 4.6 mph - N/A   Clear
5:52 AM 23.0 °F 17.0 °F 19.9 °F 88% 30.17 in 10.0 mi NE 4.6 mph - N/A   Clear
6:52 AM 21.0 °F 13.4 °F 19.0 °F 92% 30.18 in 10.0 mi NE 5.8 mph - N/A   Clear
7:52 AM 21.9 °F 15.7 °F 19.0 °F 89% 30.19 in 10.0 mi NE 4.6 mph - N/A   Clear
8:52 AM 21.9 °F 15.7 °F 19.0 °F 89% 30.20 in 10.0 mi NE 4.6 mph - N/A   Clear
9:52 AM 26.1 °F 21.9 °F 23.0 °F 88% 30.21 in 10.0 mi NNE 3.5 mph - N/A   Clear
10:52 AM 28.0 °F 20.8 °F 25.0 °F 88% 30.22 in 10.0 mi ESE 6.9 mph - N/A   Clear
11:52 AM 30.0 °F 23.2 °F 26.1 °F 85% 30.22 in 10.0 mi ESE 6.9 mph - N/A   Clear
12:52 PM 33.1 °F 27.7 °F 28.0 °F 82% 30.22 in 10.0 mi ESE 5.8 mph - N/A   Partly Cloudy
1:52 PM 36.0 °F 29.6 °F 28.0 °F 73% 30.21 in 10.0 mi ESE 8.1 mph - N/A   Partly Cloudy
2:52 PM 37.9 °F 30.9 °F 28.0 °F 68% 30.20 in 10.0 mi ESE 10.4 mph - N/A   Partly Cloudy
3:52 PM 37.9 °F 30.9 °F 27.0 °F 65% 30.20 in 10.0 mi ESE 10.4 mph - N/A   Mostly Cloudy
4:52 PM 39.0 °F 30.3 °F 28.0 °F 65% 30.20 in 10.0 mi SE 16.1 mph - N/A   Overcast
5:52 PM 39.0 °F 34.0 °F 27.0 °F 62% 30.20 in 10.0 mi Variable 6.9 mph - N/A   Overcast
6:52 PM 37.9 °F 32.7 °F 27.0 °F 65% 30.20 in 10.0 mi East 6.9 mph - N/A   Overcast
7:52 PM 37.9 °F 32.1 °F 28.9 °F 70% 30.22 in 10.0 mi ESE 8.1 mph - N/A   Overcast
8:52 PM 37.9 °F 32.1 °F 28.0 °F 68% 30.23 in 10.0 mi East 8.1 mph - N/A   Overcast
9:52 PM 36.0 °F 28.0 °F 30.0 °F 79% 30.22 in 10.0 mi East 11.5 mph - 0.00 in   Overcast
10:52 PM 37.0 °F 31.6 °F 30.0 °F 76% 30.23 in 10.0 mi East 6.9 mph - N/A   Overcast
11:52 PM 37.9 °F 31.5 °F 28.0 °F 68% 30.22 in 10.0 mi ESE 9.2 mph - N/A   Overcast